Total_Precipitation_Accumulation
0.07 0.14 0.20 0.22 0.18 0.17 0.14 0.14 0.21 0.30 0.46 0.60 0.69 0.72 0.70 0.71 0.73 0.68 0.73 0.76 0.81 0.86 0.75 0.70 0.72 0.73 0.75 0.79 0.82 0.84 1.03 1.20 1.38 1.54 1.60 1.66 1.72 1.75 1.81 1.85 1.76 1.85 1.91 1.88
0.09 0.14 0.16 0.17 0.20 0.15 0.11 0.11 0.17 0.29 0.49 0.63 0.62 0.70 0.72 0.67 0.65 0.69 0.77 0.82 0.95 0.97 0.90 0.92 0.90 0.90 0.91 0.93 1.00 1.14 1.29 1.45 1.55 1.64 1.70 1.65 1.64 1.68 1.84 1.91 1.97 2.09 2.13 2.14
0.18 0.20 0.21 0.24 0.22 0.16 0.14 0.18 0.24 0.33 0.50 0.62 0.68 0.81 0.90 0.90 0.81 0.82 0.93 0.97 1.09 1.15 1.13 1.16 1.16 1.23 1.32 1.23 1.30 1.47 1.61 1.78 1.82 1.79 1.83 1.81 1.85 1.89 1.91 2.04 2.17 2.19 2.17 2.20
0.25 0.31 0.42 0.34 0.26 0.23 0.23 0.24 0.29 0.39 0.54 0.68 0.80 0.85 1.00 1.09 1.04 0.96 0.93 1.01 1.14 1.22 1.22 1.18 1.23 1.35 1.57 1.66 1.65 1.76 1.87 1.98 2.06 2.09 2.16 2.23 2.33 2.34 2.39 2.44 2.50 2.43 2.34 2.36
0.39 0.48 0.49 0.43 0.36 0.32 0.35 0.47 0.46 0.57 0.80 0.94 0.97 1.15 1.35 1.26 1.12 1.09 1.13 1.13 1.30 1.30 1.27 1.28 1.46 1.53 1.60 1.71 1.74 1.90 2.09 2.23 2.31 2.38 2.42 2.46 2.49 2.62 2.78 2.92 2.96 2.85 2.79 2.83
0.47 0.58 0.68 0.66 0.50 0.46 0.59 1.11 0.93 0.91 0.98 0.97 1.08 1.53 1.58 1.22 1.09 1.14 1.17 1.28 1.44 1.48 1.44 1.52 1.78 1.84 1.93 2.00 2.06 2.13 2.22 2.39 2.59 2.71 2.76 2.75 2.82 2.98 3.16 3.34 3.36 3.36 3.36 3.38
0.56 0.66 0.75 0.69 0.57 0.64 1.23 1.68 1.36 1.23 1.18 1.21 1.42 1.49 1.47 1.31 1.16 1.12 1.15 1.26 1.42 1.49 1.50 1.57 1.78 1.99 2.27 2.40 2.44 2.43 2.47 2.60 2.75 2.86 2.99 3.05 3.15 3.25 3.43 3.57 3.55 3.50 3.47 3.46
0.90 1.06 1.14 0.75 0.75 1.15 1.50 1.32 1.43 1.58 1.60 1.54 1.54 1.36 1.28 1.27 1.30 1.27 1.25 1.31 1.39 1.51 1.59 1.69 1.82 2.08 2.34 2.53 2.66 2.72 2.72 2.86 2.92 2.92 2.83 2.82 3.07 3.28 3.51 3.74 3.71 3.65 3.69 3.55
1.28 1.42 1.26 0.98 1.07 1.15 1.13 1.28 1.38 1.48 1.63 1.69 1.64 1.64 1.51 1.46 1.47 1.42 1.34 1.28 1.31 1.39 1.51 1.61 1.70 1.92 2.32 2.49 2.57 2.64 2.72 2.77 2.88 2.91 2.93 2.99 3.20 3.38 3.58 3.70 3.66 3.57 3.56 3.47
1.47 1.52 1.39 1.30 1.32 1.35 1.36 1.41 1.42 1.45 1.55 1.64 1.67 1.76 1.68 1.53 1.39 1.28 1.22 1.21 1.28 1.37 1.49 1.59 1.53 1.67 1.89 2.11 2.26 2.31 2.34 2.37 2.37 2.49 2.66 2.90 3.22 3.32 3.38 3.44 3.48 3.47 3.36 3.23
1.83 1.93 1.89 1.76 1.74 1.71 1.62 1.66 1.73 1.66 1.62 1.66 1.57 1.55 1.55 1.38 1.26 1.23 1.25 1.21 1.27 1.43 1.44 1.50 1.56 1.56 1.60 1.66 1.86 2.03 2.03 2.04 2.14 2.25 2.44 2.66 2.90 3.07 3.04 3.08 3.30 3.20 2.97 2.80
1.96 2.00 2.18 2.15 1.94 1.85 1.72 1.76 1.79 1.76 1.65 1.59 1.53 1.51 1.44 1.34 1.27 1.25 1.26 1.27 1.28 1.34 1.33 1.32 1.44 1.52 1.54 1.64 1.81 1.88 1.82 1.83 1.87 1.92 2.08 2.25 2.42 2.56 2.59 2.38 2.44 2.36 2.22 2.10
1.68 1.81 1.96 2.10 1.99 1.95 1.95 1.88 1.84 1.86 1.74 1.62 1.55 1.49 1.40 1.37 1.32 1.26 1.28 1.32 1.36 1.38 1.38 1.39 1.41 1.49 1.60 1.80 1.97 2.04 1.94 1.89 1.87 1.89 2.00 2.05 2.08 2.13 2.18 2.05 1.91 1.86 1.74 1.60
1.81 2.01 2.33 2.45 2.32 2.11 2.08 1.96 1.84 1.95 1.95 1.87 1.70 1.51 1.36 1.30 1.26 1.30 1.37 1.47 1.51 1.52 1.49 1.50 1.51 1.50 1.53 1.69 1.89 2.17 2.22 2.16 2.03 1.99 1.99 1.92 1.91 1.97 2.07 2.08 1.96 1.74 1.55 1.35
1.98 2.12 2.32 2.37 2.22 2.07 2.02 1.98 1.90 1.92 1.91 1.87 1.81 1.63 1.47 1.38 1.37 1.40 1.41 1.48 1.52 1.53 1.57 1.53 1.52 1.53 1.58 1.68 1.76 1.91 2.13 2.11 1.99 1.98 2.01 2.09 2.05 2.04 2.10 2.11 2.14 2.03 1.75 1.51
2.00 2.05 2.20 2.22 2.18 2.05 1.91 1.94 1.96 1.87 1.77 1.75 1.76 1.68 1.60 1.44 1.36 1.32 1.35 1.52 1.73 1.75 1.67 1.68 1.66 1.59 1.54 1.58 1.63 1.74 1.87 1.92 1.83 1.82 1.84 1.98 2.03 2.00 2.03 2.14 2.15 2.05 1.86 1.59
1.88 2.04 2.23 2.23 2.12 1.92 1.85 1.92 1.93 1.83 1.70 1.55 1.61 1.58 1.53 1.50 1.51 1.53 1.54 1.59 1.76 1.81 1.69 1.70 1.71 1.63 1.54 1.56 1.63 1.62 1.64 1.61 1.59 1.60 1.68 1.82 1.94 1.96 1.94 1.93 1.97 1.91 1.76 1.49
1.55 1.72 1.86 1.91 1.92 1.81 1.70 1.70 1.78 1.76 1.65 1.57 1.58 1.59 1.54 1.60 1.68 1.76 1.80 1.79 1.78 1.69 1.60 1.60 1.49 1.43 1.38 1.39 1.49 1.53 1.59 1.56 1.44 1.45 1.63 1.73 1.80 1.86 1.80 1.74 1.71 1.70 1.59 1.35
1.44 1.51 1.50 1.57 1.58 1.60 1.58 1.55 1.57 1.59 1.52 1.52 1.58 1.64 1.60 1.61 1.72 1.81 1.80 1.87 1.93 1.79 1.52 1.33 1.25 1.13 1.11 1.06 1.06 1.20 1.37 1.46 1.45 1.47 1.57 1.59 1.62 1.76 1.79 1.77 1.75 1.72 1.55 1.39
1.34 1.42 1.44 1.40 1.33 1.39 1.40 1.42 1.45 1.48 1.44 1.49 1.58 1.57 1.56 1.58 1.64 1.78 1.84 1.87 1.88 1.79 1.54 1.32 1.09 0.94 0.86 0.81 0.86 0.92 1.06 1.23 1.27 1.25 1.29 1.39 1.49 1.62 1.71 1.67 1.67 1.71 1.64 1.52
1.29 1.33 1.29 1.29 1.29 1.32 1.30 1.24 1.27 1.38 1.39 1.40 1.50 1.57 1.64 1.62 1.55 1.65 1.84 1.89 1.79 1.69 1.57 1.46 1.19 1.00 0.84 0.81 0.82 0.88 1.01 1.14 1.12 1.08 1.07 1.16 1.30 1.42 1.48 1.45 1.42 1.39 1.34 1.30
1.33 1.26 1.18 1.17 1.20 1.26 1.30 1.28 1.21 1.20 1.22 1.32 1.39 1.46 1.56 1.55 1.56 1.59 1.56 1.72 1.72 1.76 1.58 1.41 1.22 1.08 0.97 0.85 0.76 0.84 0.98 1.05 1.05 0.97 0.93 1.02 1.21 1.33 1.37 1.40 1.41 1.37 1.32 1.28
1.44 1.34 1.25 1.23 1.19 1.21 1.25 1.26 1.21 1.21 1.33 1.47 1.48 1.51 1.57 1.52 1.54 1.67 1.60 1.38 1.35 1.51 1.37 1.25 1.24 1.14 0.98 0.85 0.81 0.89 1.04 1.11 1.08 0.96 0.94 1.04 1.14 1.20 1.27 1.27 1.32 1.36 1.37 1.31
1.47 1.33 1.32 1.35 1.29 1.27 1.39 1.31 1.25 1.31 1.39 1.51 1.47 1.46 1.50 1.50 1.48 1.39 1.34 1.27 1.22 1.30 1.14 1.08 1.05 1.02 0.98 0.94 0.97 1.00 1.04 1.06 1.06 0.98 0.98 0.99 1.00 1.05 1.14 1.23 1.33 1.40 1.36 1.30
1.45 1.38 1.34 1.46 1.51 1.44 1.50 1.38 1.29 1.32 1.34 1.43 1.37 1.35 1.39 1.39 1.47 1.41 1.27 1.16 1.19 1.22 1.12 1.09 1.03 1.01 0.98 1.04 1.12 1.10 1.09 1.09 1.10 1.07 1.06 1.04 1.02 1.06 1.15 1.31 1.44 1.46 1.39 1.36
1.55 1.55 1.50 1.50 1.46 1.38 1.37 1.29 1.22 1.24 1.38 1.60 1.49 1.33 1.40 1.39 1.33 1.35 1.37 1.27 1.21 1.25 1.20 1.15 1.09 1.07 1.05 1.16 1.27 1.26 1.20 1.16 1.14 1.12 1.14 1.20 1.24 1.27 1.33 1.44 1.47 1.40 1.30 1.23
1.53 1.47 1.43 1.37 1.34 1.34 1.36 1.31 1.26 1.30 1.42 1.65 1.59 1.33 1.31 1.30 1.30 1.35 1.36 1.37 1.32 1.30 1.29 1.22 1.13 1.10 1.11 1.16 1.18 1.17 1.18 1.20 1.18 1.15 1.14 1.18 1.25 1.31 1.31 1.33 1.32 1.24 1.18 1.10